User: anonymous   Login
Location: Columbia
(38.9520°N, 92.3340°W)
Time: 02:58:23
(UTC-05:00)
Language:

CZ-2C R/B - Orbit

View from above orbital plane
View from above orbital plane
View from above satellite
View from above satellite

Ground track
Ground track

The orbit data is extracted from the following two-line orbital elements,

1 28480U 04046B   16178.90357483  .00000051  00000-0  34842-4 0  9999
2 28480  98.1833 292.1666 0141899 192.5976 276.8175 14.25597617603618
Epoch (UTC): 26 June 2016 21:41:08
Eccentricity: 0.0141899
inclination: 98.1833°
perigee height: 704 km
apogee height: 908 km
right ascension of ascending node: 292.1666°
argument of perigee: 192.5976°
revolutions per day: 14.25597617
mean anomaly at epoch: 276.8175°
orbit number at epoch: 60361

The dashed part of the orbit path shows where the satellite is in the earth's shadow,  

DLR